"Pseudo-MPEC" for C03K7H1

Created 2019 Feb 14 11:18:04 UT using Find_Orb

Click here for an explanation of pseudo-MPECs

 
 Astrometry: 
     C03K7H1  C2019 02 12.30816 11 30 38.35 -17 19 38.4    ~2C8X 19.6 GVNEOCP703
     C03K7H1  C2019 02 12.31351 11 30 38.31 -17 19 49.0    ~2C8X 19.6 GVNEOCP703
     C03K7H1  C2019 02 12.31887 11 30 38.00 -17 20 01.4    ~2C8X 19.1 GVNEOCP703
     C03K7H1  C2019 02 12.32422 11 30 37.72 -17 20 12.4    ~2C8X 19.8 GVNEOCP703
     C03K7H1  C2019 02 12.42742 11 30 32.82 -17 23 35.0    ~2CAm 19.3 GVNEOCPI52
     C03K7H1  C2019 02 12.42947 11 30 32.71 -17 23 38.6    ~2CAm 19.3 GVNEOCPI52
     C03K7H1  C2019 02 12.43152 11 30 32.61 -17 23 42.6    ~2CAm 19.2 GVNEOCPI52
     C03K7H1  C2019 02 12.43358 11 30 32.50 -17 23 46.5    ~2CAm 19.3 GVNEOCPI52
     C03K7H1 KC2019 02 124'-YfEIU-cvU)vAstrometry3a[q1C_xR;mUtN///ei)0l8q/4'l474
     C03K7H1 KC2019 02 12W-cU9%InSwX,t'O#7A;credacted;P)DB:8u`=ccMVBv%vM]83W@474
     C03K7H1 KC2019 02 1254rW(0-hf-+)JX:m.?i5V[Ig!fgJa;_u4qWxXE?e*i=\K5%;E;3*474
     C03K7H1 KC2019 02 12%gs\?Q[^clickpf;_)1v.GU#FpAYg%IJhS#6Yj/o0`QHVqcoukbv474
     C03K7H1 pC2019 02 128A%c/X@Ek1.aAnli$cSs=(?Y$@yFka^\'!k:A6+RxFMl8=JUJwr,L01
     C03K7H1 KC2019 02 12\F3@(nuM.=no;:Ba-91b=/5Ihere%u3pD,'1c%!7h=T\fpPcW]VCL01
     C03K7H1 KC2019 02 12d1'jUgKfm5EngfZ#R*TobkL_Ek4wx.^CcKn)?])3cpyDN,((!DM'L01
     C03K7H1 |C2019 02 14w`35)Q`Q4%5qmxhFvR%x.I%5SR=M:v$forT/9]:4)Y#BMR^YW6A[807
     C03K7H1 |C2019 02 14$tpg3S(gBe!Ee'!..TFBe7=F-N4/V*LZ$BH7P*YLoZKZ;MB$[iFF807
     C03K7H1 |C2019 02 14PHe)iyQ[Oexplanation[:U*Ndi-amh*mid16+#K[%7^.Z79o@Nc807

Station data:
(474) Mount John Observatory, Lake Tekapo  (S43.987388 E170.464960)  New
   Zealand.  Observers A. C. Gilmore, P. M. Kilmartin. Measurer P. M.
   Kilmartin. 1.0-m f/7.7 reflector + CCD.
(703) Catalina Sky Survey  (N32.417006 W110.732640)  US/Arizona.  Observers
   B. M. Africano, E. J. Christensen, G. A. Farneth, D. C. Fuls, A. R. Gibbs,
   A. D. Grauer, H. Groeller, J. A. Johnson, R. A. Kowalski, S. M. Larson, G.
   J. Leonard, R. L. Seaman, F. C. Shelly. 0.68 m Schmidt + 10K CCD.
(807) Cerro Tololo Observatory, La Serena  (S30.169136 W70.805900)  Chile.
   1.5-m Ritchey-Chrétien.
(I52) Steward Observatory, Mt. Lemmon Station  (N32.442547 W110.788920)
   US/Arizona.  Observers B. M. Africano, E. J. Christensen, G. A. Farneth,
   D. C. Fuls, A. R. Gibbs, A. D. Grauer, H. Groeller, J. A. Johnson, R. A.
   Kowalski, S. M. Larson, G. J. Leonard, R. L. Seaman, F. C. Shelly. 1.0-m
   reflector + CCD.
(L01) Višnjan Observatory, Tičan  (N45.290900 E13.749300)  Croatia.
   Observers K. Korlević, E. Pettarin. Measurer E. Pettarin. 1.0-m f/2.9
   reflector + CCD.

Orbital elements:  C03K7H1
   Perihelion 2019 Mar 31.193560 +/- 4.96 TT =  4:38:43 (JD 2458573.693560)
Epoch 2019 Feb 14.0 TT = JDT 2458528.5   Earth MOID: 0.6254   Ma: 0.0795
M 348.10206753 +/- 1.8              (J2000 ecliptic)          AutoNEOCP
n   0.26326610 +/- 0.0158           Peri.  230.90539 +/- 3.1
a   2.41104928 +/- 0.0961           Node   316.02383 +/- 0.51
e   0.3581804 +/- 0.0181            Incl.   21.17285 +/- 0.50
P   3.74                   H 18.3   G  0.15   U 10.0  
q 1.54745860 +/- 0.018    Q 3.27463995 +/- 0.168
From 18 observations 2019 Feb. 12-14 (44.6 hr); mean residual 0".53
Residuals in arcseconds: 
190212 703  1.6-  .75+    190212 I52  .02-  .32+    190212 L01  .19-  .10+    
190212 703  1.4+  .76+    190212 I52  .19-  .47+    190212 L01  .25+  .06+    
190212 703  .54+  1.0-    190212 474  .12-  .01-    190212 L01  .28-  .28-    
190212 703  .13+  1.4-    190212 474  .09-  .01+    190214 807  .01-  .04+    
190212 I52  .19+  .16-    190212 474  .15+  .22+    190214 807  .09+  .07-    
190212 I52  .01+  .28+    190212 474  .23-  .06-    190214 807  .04+  .01+    

Ephemerides (geocentric):
Date (UTC) HH   RA              Dec         delta   r     elong  mag " sig PA
---- -- -- --  -------------   -----------  ------ ------ -----  --- ---- ---
2019 02 14 11  11 28 59.093   -18 30 05.97  .70176 1.5906 140.0 19.7 .394  82
2019 02 14 12  11 28 57.038   -18 31 27.87  .70154 1.5905 140.1 19.7 .423  82
2019 02 14 13  11 28 54.979   -18 32 49.75  .70133 1.5904 140.1 19.7 .453  83
2019 02 14 14  11 28 52.915   -18 34 11.63  .70111 1.5903 140.1 19.7 .484  83
2019 02 14 15  11 28 50.845   -18 35 33.50  .70089 1.5903 140.1 19.7 .516  84
2019 02 14 16  11 28 48.771   -18 36 55.36  .70068 1.5902 140.2 19.7 .549  84
2019 02 14 17  11 28 46.691   -18 38 17.21  .70046 1.5901 140.2 19.6 .583  84
2019 02 14 18  11 28 44.606   -18 39 39.05  .70025 1.5900 140.2 19.6 .618  85
2019 02 14 19  11 28 42.516   -18 41 00.88  .70003 1.5900 140.2 19.6 .653  85
2019 02 14 20  11 28 40.421   -18 42 22.70  .69982 1.5899 140.3 19.6 .690  85
2019 02 14 21  11 28 38.320   -18 43 44.52  .69961 1.5898 140.3 19.6 .727  85
2019 02 14 22  11 28 36.215   -18 45 06.32  .69939 1.5897 140.3 19.6 .765  86
2019 02 14 23  11 28 34.105   -18 46 28.11  .69918 1.5896 140.3 19.6 .805  86
2019 02 15 00  11 28 31.989   -18 47 49.89  .69897 1.5896 140.3 19.6 .845  86
2019 02 15 01  11 28 29.868   -18 49 11.66  .69875 1.5895 140.4 19.6 .886  86
2019 02 15 02  11 28 27.742   -18 50 33.42  .69854 1.5894 140.4 19.6 .928  87
2019 02 15 03  11 28 25.611   -18 51 55.17  .69833 1.5893 140.4 19.6 .970  87
2019 02 15 04  11 28 23.475   -18 53 16.91  .69812 1.5893 140.4 19.6 1.01  87
2019 02 15 05  11 28 21.334   -18 54 38.64  .69791 1.5892 140.5 19.6 1.06  87
2019 02 15 06  11 28 19.188   -18 56 00.35  .69770 1.5891 140.5 19.6 1.10  88
2019 02 15 07  11 28 17.036   -18 57 22.06  .69749 1.5890 140.5 19.6 1.15  88
2019 02 15 08  11 28 14.880   -18 58 43.75  .69728 1.5889 140.5 19.6 1.20  88
2019 02 15 09  11 28 12.718   -19 00 05.44  .69707 1.5889 140.5 19.6 1.25  88
2019 02 15 10  11 28 10.551   -19 01 27.11  .69686 1.5888 140.6 19.6 1.30  88
2019 02 15 11  11 28 08.380   -19 02 48.77  .69665 1.5887 140.6 19.6 1.35  88
2019 02 15 12  11 28 06.203   -19 04 10.42  .69644 1.5886 140.6 19.6 1.40  89
2019 02 15 13  11 28 04.021   -19 05 32.05  .69623 1.5886 140.6 19.6 1.45  89
2019 02 15 14  11 28 01.834   -19 06 53.68  .69602 1.5885 140.7 19.6 1.50  89
2019 02 15 15  11 27 59.641   -19 08 15.29  .69582 1.5884 140.7 19.6 1.56  89
2019 02 15 16  11 27 57.444   -19 09 36.89  .69561 1.5883 140.7 19.6 1.61  89
2019 02 15 17  11 27 55.242   -19 10 58.48  .69540 1.5883 140.7 19.6 1.67  89
2019 02 15 18  11 27 53.034   -19 12 20.06  .69520 1.5882 140.7 19.6 1.72  89
2019 02 15 19  11 27 50.822   -19 13 41.62  .69499 1.5881 140.8 19.6 1.78  90
2019 02 15 20  11 27 48.604   -19 15 03.18  .69478 1.5880 140.8 19.6 1.84  90
2019 02 15 21  11 27 46.381   -19 16 24.71  .69458 1.5880 140.8 19.6 1.90  90
2019 02 15 22  11 27 44.153   -19 17 46.24  .69437 1.5879 140.8 19.6 1.96  90
2019 02 15 23  11 27 41.920   -19 19 07.75  .69417 1.5878 140.9 19.6 2.02  90
2019 02 16 00  11 27 39.682   -19 20 29.25  .69396 1.5877 140.9 19.6 2.08  90
2019 02 16 01  11 27 37.439   -19 21 50.74  .69376 1.5877 140.9 19.6 2.14  90
2019 02 16 02  11 27 35.191   -19 23 12.21  .69355 1.5876 140.9 19.6 2.21  90
2019 02 16 03  11 27 32.938   -19 24 33.67  .69335 1.5875 140.9 19.6 2.27  91
2019 02 16 04  11 27 30.680   -19 25 55.12  .69315 1.5874 141.0 19.6 2.34  91
2019 02 16 05  11 27 28.417   -19 27 16.55  .69295 1.5873 141.0 19.6 2.40  91
2019 02 16 06  11 27 26.148   -19 28 37.97  .69274 1.5873 141.0 19.6 2.47  91
2019 02 16 07  11 27 23.875   -19 29 59.38  .69254 1.5872 141.0 19.6 2.54  91
2019 02 16 08  11 27 21.596   -19 31 20.77  .69234 1.5871 141.1 19.6 2.61  91
2019 02 16 09  11 27 19.313   -19 32 42.15  .69214 1.5870 141.1 19.6 2.68  91
2019 02 16 10  11 27 17.024   -19 34 03.51  .69194 1.5870 141.1 19.6 2.75  91